Weather History for Lovelock, NV

Change the Weather History Date:

Sunday, March 16, 2014

  Actual Average Record
Temperature  
Mean Temperature 48 °F -  
Max Temperature 73 °F 56 °F 80 °F (2007)
Min Temperature 24 °F 28 °F 10 °F (1955)
Degree Days  
Heating Degree Days 16    
Moisture  
Dew Point 14 °F    
Average Humidity 29    
Maximum Humidity 60    
Minimum Humidity 10    
Precipitation  
Precipitation 0.00 in - - ()
Sea Level Pressure  
Sea Level Pressure 30.26 in    
Wind  
Wind Speed 6 mph (SSW)    
Max Wind Speed 22 mph    
Max Gust Speed 26 mph    
Visibility 10 miles    
Events      
Averages and records for this station are not official NWS values.
T = Trace of Precipitation, MM = Missing Value Source: NWS Daily Summary

Daily Weather History Graph

Daily Weather History Graph

Search for Another Location

Airport:

Trip Planner

Search our weather history database for the weather conditions in past years. The results will help you decide how hot, cold, wet, or windy it might be!

Date:

Astronomy

Mar. 16, 2014 Rise Set
Actual Time 7:04 AM PDT 7:02 PM PDT
Civil Twilight 6:37 AM PDT 7:29 PM PDT
Nautical Twilight 6:05 AM PDT 8:00 PM PDT
Astronomical Twilight 5:33 AM PDT 8:32 PM PDT
Moon 7:24 PM PDT (3/16) 6:50 AM PDT (3/16)
Length of Visible Light 12h 52m
Length of Day
11h 58m
Full, 100% of the Moon is Illuminated
Mar 16
Full
Mar 23
Last Quarter
Mar 30
New
Apr 7
First Quarter
Apr 15
Full

Hourly Weather History & Observations

Time (PDT) Temp. Windchill Dew Point Humidity Pressure Visibility Wind Dir Wind Speed Gust Speed Precip Events Conditions
12:53 AM 30.9 °F 25.2 °F 12.9 °F 47% 30.44 in 10.0 mi SSE 5.8 mph - N/A   Clear
1:53 AM 30.9 °F - 15.1 °F 52% 30.43 in 10.0 mi Calm Calm - N/A   Clear
2:53 AM 33.1 °F - 16.0 °F 50% 30.42 in 10.0 mi Calm Calm - N/A   Clear
3:53 AM 27.0 °F - 12.0 °F 53% 30.42 in 10.0 mi Calm Calm - N/A   Clear
4:53 AM 27.0 °F 23.0 °F 12.9 °F 56% 30.42 in 10.0 mi East 3.5 mph - N/A   Clear
5:53 AM 26.1 °F - 14.0 °F 60% 30.42 in 10.0 mi Calm Calm - N/A   Clear
6:53 AM 24.1 °F - 12.0 °F 60% 30.43 in 10.0 mi Calm Calm - N/A   Clear
7:53 AM 28.9 °F - 15.1 °F 56% 30.44 in 10.0 mi Calm Calm - N/A   Clear
8:53 AM 37.9 °F - 18.0 °F 45% 30.43 in 10.0 mi Calm Calm - N/A   Clear
9:53 AM 45.0 °F 42.6 °F 19.9 °F 37% 30.42 in 10.0 mi NW 4.6 mph - N/A   Clear
10:53 AM 55.0 °F - 18.0 °F 23% 30.40 in 10.0 mi SSW 3.5 mph - N/A   Clear
11:53 AM 59.0 °F - 16.0 °F 19% 30.35 in 10.0 mi NW 4.6 mph - N/A   Clear
12:53 PM 64.9 °F - 15.1 °F 15% 30.31 in 10.0 mi SSW 10.4 mph - N/A   Clear
1:53 PM 68.0 °F - 14.0 °F 12% 30.26 in 10.0 mi SSW 10.4 mph - N/A   Clear
2:53 PM 70.0 °F - 17.1 °F 13% 30.19 in 10.0 mi SSE 16.1 mph 21.9 mph N/A   Clear
3:53 PM 72.0 °F - 15.1 °F 11% 30.17 in 10.0 mi South 10.4 mph - N/A   Clear
4:53 PM 73.0 °F - 12.9 °F 10% 30.13 in 10.0 mi South 9.2 mph - N/A   Clear
5:53 PM 72.0 °F - 12.9 °F 10% 30.10 in 10.0 mi South 13.8 mph - N/A   Clear
6:53 PM 68.0 °F - 9.0 °F 10% 30.10 in 10.0 mi West 16.1 mph - N/A   Clear
7:53 PM 66.0 °F - 12.0 °F 12% 30.09 in 10.0 mi WSW 11.5 mph - N/A   Clear
8:53 PM 63.0 °F - 12.0 °F 14% 30.06 in 10.0 mi West 21.9 mph 26.5 mph N/A   Clear
9:53 PM 59.0 °F - 10.9 °F 15% 30.03 in 10.0 mi ESE 5.8 mph - N/A   Clear
10:53 PM 53.1 °F - 12.9 °F 20% 30.00 in 9.0 mi South 9.2 mph - N/A   Clear
11:44 PM 55.9 °F - 12.9 °F 18% 30.00 in 4.0 mi SSW 11.5 mph - N/A   Haze
11:53 PM 57.9 °F - 15.1 °F 19% 29.93 in 8.0 mi SW 20.7 mph 26.5 mph N/A   Partly Cloudy